DLH716 EDDN-EDDH

Flight info

Callsign DLH716
Flight time 1h 14m
Altitude 30000
Route ERETO1G ERETO DCT LONLI M726 LASTO M852 LARET/N0447F340 M852 HLZ Z990 DIRBO/N0389F230 T902 RARUP RARUP6A
Aircraft A21N/M-SDE2E3FGHIRWXY/LB1

Departure

Time 2026-05-07 18:23
Airport Nuremberg Airport (EDDN)

Arrival

Time 2026-05-07 19:38
Airport Hamburg Helmut Schmidt Airport (EDDH)
Time Latitude Longitude Altitude Speed Heading
2026-05-07 17:53 49.49533 11.07661 1032 ft 0 kts 188°
2026-05-07 18:11 49.49534 11.07661 1031 ft 2 kts 189°
2026-05-07 18:11 49.49558 11.07667 1031 ft 3 kts 189°
2026-05-07 18:11 49.49579 11.07668 1032 ft 4 kts 158°
2026-05-07 18:12 49.49596 11.07644 1031 ft 4 kts 110°
2026-05-07 18:12 49.49600 11.07619 1031 ft 0 kts 98°
2026-05-07 18:19 49.49599 11.07632 1031 ft 4 kts 98°
2026-05-07 18:19 49.49593 11.07697 1032 ft 8 kts 98°
2026-05-07 18:19 49.49582 11.07805 1032 ft 12 kts 98°
2026-05-07 18:19 49.49570 11.07943 1033 ft 14 kts 98°
2026-05-07 18:20 49.49554 11.08102 1033 ft 16 kts 99°
2026-05-07 18:20 49.49538 11.08252 1034 ft 7 kts 100°
2026-05-07 18:20 49.49547 11.08333 1035 ft 10 kts 44°
2026-05-07 18:20 49.49611 11.08401 1039 ft 13 kts 73°
2026-05-07 18:21 49.49603 11.08555 1041 ft 16 kts 98°
2026-05-07 18:21 49.49586 11.08734 1042 ft 18 kts 99°
2026-05-07 18:21 49.49566 11.08934 1044 ft 20 kts 99°
2026-05-07 18:21 49.49544 11.09154 1047 ft 22 kts 98°
2026-05-07 18:22 49.49542 11.09395 1052 ft 24 kts 53°
2026-05-07 18:22 49.49611 11.09518 1056 ft 19 kts 48°
2026-05-07 18:22 49.49709 11.09412 1055 ft 21 kts 279°
2026-05-07 18:22 49.49738 11.09132 1051 ft 42 kts 278°
2026-05-07 18:23 49.49821 11.08319 1039 ft 109 kts 278°
2026-05-07 18:23 49.49966 11.06903 1031 ft 154 kts 279°
2026-05-07 18:23 49.50132 11.05268 1527 ft 151 kts 280°
2026-05-07 18:23 49.50295 11.03680 2122 ft 151 kts 279°
2026-05-07 18:24 49.50422 11.02016 2511 ft 166 kts 280°
2026-05-07 18:24 49.50591 11.00179 3004 ft 182 kts 280°
2026-05-07 18:24 49.50799 10.98164 3631 ft 198 kts 281°
2026-05-07 18:24 49.51178 10.96024 4221 ft 219 kts 295°
2026-05-07 18:25 49.52102 10.94008 4661 ft 244 kts 317°
2026-05-07 18:25 49.53602 10.92670 5374 ft 258 kts 341°
2026-05-07 18:25 49.55404 10.92352 6331 ft 265 kts 358°
2026-05-07 18:25 49.57224 10.92449 7226 ft 268 kts 359°
2026-05-07 18:26 49.59098 10.92555 8153 ft 272 kts 359°
2026-05-07 18:26 49.60999 10.92642 9094 ft 276 kts 359°
2026-05-07 18:26 49.62955 10.92938 10002 ft 284 kts
2026-05-07 18:26 49.64939 10.93420 10531 ft 304 kts
2026-05-07 18:27 49.67103 10.93950 10874 ft 328 kts
2026-05-07 18:27 49.69454 10.94518 11222 ft 351 kts
2026-05-07 18:27 49.71884 10.95104 11759 ft 363 kts
2026-05-07 18:27 49.73540 10.95502 12263 ft 367 kts
2026-05-07 18:28 49.76922 10.96312 13343 ft 372 kts
2026-05-07 18:28 49.79485 10.96928 14090 ft 377 kts
2026-05-07 18:28 49.82048 10.97543 14761 ft 381 kts
2026-05-07 18:28 49.84672 10.98166 15430 ft 385 kts
2026-05-07 18:29 49.87324 10.98798 16084 ft 388 kts
2026-05-07 18:29 49.89978 10.99434 16724 ft 392 kts
2026-05-07 18:29 49.92617 11.00066 17338 ft 396 kts
2026-05-07 18:29 49.95397 11.00736 17977 ft 399 kts
2026-05-07 18:30 49.98151 11.01399 18551 ft 403 kts
2026-05-07 18:30 50.00933 11.02066 19071 ft 406 kts
2026-05-07 18:30 50.03694 11.02733 19610 ft 409 kts
2026-05-07 18:30 50.06527 11.03415 20136 ft 412 kts
2026-05-07 18:31 50.09242 11.04070 20633 ft 415 kts
2026-05-07 18:31 50.12203 11.04786 21161 ft 418 kts
2026-05-07 18:31 50.15081 11.05480 21715 ft 421 kts
2026-05-07 18:31 50.17980 11.06181 22238 ft 424 kts
2026-05-07 18:32 50.20905 11.06894 22685 ft 429 kts
2026-05-07 18:32 50.23858 11.07614 23184 ft 433 kts
2026-05-07 18:32 50.26812 11.08333 23677 ft 436 kts
2026-05-07 18:32 50.29815 11.09062 24130 ft 439 kts
2026-05-07 18:33 50.32841 11.09696 24587 ft 441 kts
2026-05-07 18:33 50.35892 11.09479 25056 ft 442 kts 354°
2026-05-07 18:33 50.38955 11.09014 25541 ft 443 kts 353°
2026-05-07 18:33 50.42009 11.08548 26006 ft 445 kts 353°
2026-05-07 18:34 50.45087 11.08097 26524 ft 446 kts 354°
2026-05-07 18:34 50.48168 11.07651 27144 ft 443 kts 354°
2026-05-07 18:34 50.51216 11.07213 27749 ft 441 kts 354°
2026-05-07 18:34 50.54257 11.06780 28311 ft 440 kts 354°
2026-05-07 18:35 50.57291 11.06337 28904 ft 439 kts 354°
2026-05-07 18:35 50.60275 11.05903 29491 ft 437 kts 354°
2026-05-07 18:35 50.63321 11.05460 29973 ft 437 kts 354°
2026-05-07 18:35 50.66298 11.05030 30105 ft 436 kts 354°
2026-05-07 18:36 50.69305 11.04604 30161 ft 435 kts 354°
2026-05-07 18:36 50.72317 11.04175 30508 ft 436 kts 354°
2026-05-07 18:36 50.75326 11.03734 30918 ft 436 kts 354°
2026-05-07 18:36 50.78327 11.03293 31342 ft 435 kts 354°
2026-05-07 18:37 50.81344 11.02850 31711 ft 436 kts 354°
2026-05-07 18:37 50.84371 11.02409 32032 ft 439 kts 354°
2026-05-07 18:37 50.87416 11.01972 32123 ft 439 kts 354°
2026-05-07 18:38 50.93484 11.01084 32101 ft 439 kts 354°
2026-05-07 18:38 50.99547 11.00192 32087 ft 439 kts 354°
2026-05-07 18:39 51.05618 10.99300 32086 ft 439 kts 354°
2026-05-07 18:39 51.11703 10.98407 32086 ft 439 kts 354°
2026-05-07 18:40 51.17778 10.97510 32082 ft 439 kts 354°
2026-05-07 18:40 51.23849 10.96615 32088 ft 440 kts 354°
2026-05-07 18:41 51.29951 10.95707 32097 ft 440 kts 353°
2026-05-07 18:41 51.36055 10.94798 32096 ft 440 kts 353°
2026-05-07 18:42 51.42163 10.93885 32098 ft 440 kts 353°
2026-05-07 18:42 51.47234 10.93130 32097 ft 440 kts 353°
2026-05-07 18:43 51.53309 10.92238 32104 ft 439 kts 355°
2026-05-07 18:43 51.59375 10.91558 32105 ft 438 kts 355°
2026-05-07 18:44 51.66437 10.90778 32109 ft 438 kts 355°
2026-05-07 18:44 51.71497 10.90212 32109 ft 438 kts 355°
2026-05-07 18:45 51.77570 10.89531 32108 ft 438 kts 355°
2026-05-07 18:45 51.83621 10.88853 31203 ft 434 kts 355°
2026-05-07 18:45 51.86648 10.88512 30330 ft 437 kts 355°
2026-05-07 18:46 51.89676 10.88171 29383 ft 438 kts 355°
2026-05-07 18:46 51.92710 10.87831 28362 ft 439 kts 355°
2026-05-07 18:46 51.95716 10.87492 27338 ft 442 kts 355°
2026-05-07 18:46 51.98792 10.87142 26546 ft 439 kts 355°
2026-05-07 18:47 52.01824 10.86799 25858 ft 434 kts 355°
2026-05-07 18:47 52.04832 10.86460 25350 ft 430 kts 355°
2026-05-07 18:47 52.07816 10.86121 25149 ft 429 kts 355°
2026-05-07 18:47 52.10806 10.85782 25107 ft 430 kts 355°
2026-05-07 18:48 52.13754 10.85447 25104 ft 431 kts 355°
2026-05-07 18:48 52.16753 10.85104 25109 ft 431 kts 355°
2026-05-07 18:48 52.19746 10.84762 25113 ft 431 kts 355°
2026-05-07 18:48 52.22719 10.84423 25114 ft 431 kts 355°
2026-05-07 18:49 52.25730 10.84078 25111 ft 431 kts 355°
2026-05-07 18:49 52.28663 10.83742 25107 ft 427 kts 355°
2026-05-07 18:49 52.31597 10.83406 24478 ft 422 kts 355°
2026-05-07 18:49 52.34509 10.83071 23716 ft 421 kts 355°
2026-05-07 18:50 52.37421 10.82735 22901 ft 419 kts 355°
2026-05-07 18:50 52.40311 10.82401 22160 ft 415 kts 355°
2026-05-07 18:50 52.43177 10.82070 21451 ft 411 kts 355°
2026-05-07 18:50 52.46004 10.81745 20763 ft 407 kts 355°
2026-05-07 18:51 52.48792 10.81421 20279 ft 398 kts 355°
2026-05-07 18:51 52.51502 10.81107 20009 ft 384 kts 355°
2026-05-07 18:51 52.54118 10.80805 19777 ft 371 kts 355°
2026-05-07 18:51 52.56634 10.80514 19538 ft 358 kts 355°
2026-05-07 18:52 52.59061 10.80231 19100 ft 354 kts 355°
2026-05-07 18:52 52.61501 10.79947 18595 ft 351 kts 355°
2026-05-07 18:52 52.63880 10.79669 18052 ft 349 kts 355°
2026-05-07 18:52 52.66328 10.79383 17485 ft 347 kts 355°
2026-05-07 18:53 52.68631 10.79114 16964 ft 344 kts 355°
2026-05-07 18:53 52.71084 10.78829 16417 ft 342 kts 355°
2026-05-07 18:53 52.73439 10.78554 15898 ft 339 kts 355°
2026-05-07 18:53 52.75773 10.78281 15389 ft 337 kts 355°
2026-05-07 18:54 52.78089 10.78009 14905 ft 334 kts 355°
2026-05-07 18:54 52.80385 10.77740 14436 ft 331 kts 355°
2026-05-07 18:54 52.82668 10.77471 13970 ft 329 kts 355°
2026-05-07 18:54 52.84928 10.77207 13502 ft 325 kts 355°
2026-05-07 18:55 52.87141 10.76947 13251 ft 315 kts 355°
2026-05-07 18:55 52.89275 10.76695 13051 ft 303 kts 355°
2026-05-07 18:55 52.91320 10.76455 12707 ft 298 kts 355°
2026-05-07 18:55 52.93368 10.76214 12275 ft 296 kts 355°
2026-05-07 18:56 52.95409 10.75973 11853 ft 295 kts 355°
2026-05-07 18:56 52.97443 10.75732 11546 ft 294 kts 355°
2026-05-07 18:56 52.99474 10.75491 11299 ft 292 kts 355°
2026-05-07 18:56 53.01495 10.75252 11052 ft 291 kts 355°
2026-05-07 18:57 53.03485 10.75016 10824 ft 290 kts 355°
2026-05-07 18:57 53.05515 10.74774 10656 ft 290 kts 355°
2026-05-07 18:57 53.07513 10.74536 10523 ft 289 kts 355°
2026-05-07 18:57 53.09499 10.74299 10398 ft 288 kts 355°
2026-05-07 18:58 53.11495 10.74062 10273 ft 288 kts 356°
2026-05-07 18:58 53.13454 10.73828 10154 ft 288 kts 356°
2026-05-07 18:58 53.15442 10.73592 10089 ft 287 kts 356°
2026-05-07 18:58 53.17425 10.73356 10095 ft 287 kts 356°
2026-05-07 18:59 53.19413 10.73118 10120 ft 287 kts 356°
2026-05-07 18:59 53.21399 10.72880 10121 ft 287 kts 356°
2026-05-07 18:59 53.23380 10.72643 10127 ft 287 kts 356°
2026-05-07 18:59 53.25365 10.72405 10131 ft 287 kts 356°
2026-05-07 19:00 53.27355 10.72165 10130 ft 287 kts 356°
2026-05-07 19:00 53.29325 10.71929 10132 ft 287 kts 356°
2026-05-07 19:00 53.31311 10.71691 10131 ft 287 kts 356°
2026-05-07 19:00 53.33299 10.71451 10133 ft 287 kts 356°
2026-05-07 19:01 53.35282 10.71213 10134 ft 287 kts 356°
2026-05-07 19:01 53.37239 10.70977 10131 ft 287 kts 356°
2026-05-07 19:01 53.39224 10.70737 10131 ft 287 kts 356°
2026-05-07 19:01 53.41198 10.70499 10134 ft 287 kts 356°
2026-05-07 19:02 53.43149 10.70263 10128 ft 287 kts 356°
2026-05-07 19:02 53.45162 10.70019 10127 ft 287 kts 356°
2026-05-07 19:02 53.47141 10.69780 10132 ft 287 kts 356°
2026-05-07 19:02 53.49105 10.69542 10133 ft 287 kts 356°
2026-05-07 19:03 53.51112 10.69298 10135 ft 287 kts 356°
2026-05-07 19:03 53.53099 10.69058 10139 ft 287 kts 356°
2026-05-07 19:03 53.55068 10.68599 10118 ft 284 kts 343°
2026-05-07 19:03 53.56767 10.67025 9706 ft 283 kts 319°
2026-05-07 19:04 53.57973 10.64425 9193 ft 285 kts 297°
2026-05-07 19:04 53.58505 10.61330 8741 ft 286 kts 275°
2026-05-07 19:04 53.58344 10.57970 8318 ft 285 kts 258°
2026-05-07 19:04 53.57905 10.54821 7930 ft 283 kts 257°
2026-05-07 19:05 53.57448 10.51532 7469 ft 283 kts 257°
2026-05-07 19:05 53.57034 10.48438 7178 ft 282 kts 258°
2026-05-07 19:05 53.56601 10.45116 7132 ft 282 kts 258°
2026-05-07 19:05 53.56193 10.41960 7014 ft 276 kts 258°
2026-05-07 19:06 53.55784 10.38795 6557 ft 277 kts 258°
2026-05-07 19:06 53.54977 10.32456 5667 ft 277 kts 257°
2026-05-07 19:06 53.54575 10.29311 5270 ft 276 kts 257°
2026-05-07 19:07 53.54177 10.26178 5005 ft 274 kts 257°
2026-05-07 19:07 53.53784 10.23109 4957 ft 274 kts 257°
2026-05-07 19:07 53.53381 10.19959 4963 ft 274 kts 257°
2026-05-07 19:07 53.52980 10.16846 4974 ft 269 kts 257°
2026-05-07 19:08 53.52596 10.13870 4963 ft 252 kts 257°
2026-05-07 19:08 53.52235 10.11071 4965 ft 243 kts 257°
2026-05-07 19:08 53.51878 10.08300 4974 ft 243 kts 257°
2026-05-07 19:08 53.51519 10.05530 4988 ft 243 kts 257°
2026-05-07 19:09 53.51159 10.02756 5002 ft 243 kts 257°
2026-05-07 19:09 53.50800 10.00001 5002 ft 243 kts 257°
2026-05-07 19:09 53.50444 9.97269 4995 ft 243 kts 257°
2026-05-07 19:09 53.50030 9.94524 4991 ft 243 kts 247°
2026-05-07 19:10 53.49093 9.92241 4996 ft 241 kts 227°
2026-05-07 19:10 53.47989 9.90135 4998 ft 241 kts 227°
2026-05-07 19:10 53.46894 9.88006 4999 ft 241 kts 228°
2026-05-07 19:10 53.45812 9.85875 5002 ft 241 kts 228°
2026-05-07 19:11 53.44745 9.83759 4951 ft 232 kts 228°
2026-05-07 19:11 53.43735 9.81749 4798 ft 221 kts 228°
2026-05-07 19:11 53.42763 9.79810 4487 ft 217 kts 228°
2026-05-07 19:11 53.42024 9.77631 4073 ft 218 kts 256°
2026-05-07 19:12 53.42045 9.75127 3641 ft 217 kts 289°
2026-05-07 19:12 53.42797 9.72986 3236 ft 214 kts 314°
2026-05-07 19:12 53.44011 9.71668 3002 ft 209 kts 347°
2026-05-07 19:12 53.45429 9.71179 2977 ft 208 kts 353°
2026-05-07 19:13 53.46839 9.70997 2977 ft 205 kts 12°
2026-05-07 19:13 53.48191 9.71677 2994 ft 203 kts 23°
2026-05-07 19:13 53.49503 9.72529 3054 ft 203 kts 25°
2026-05-07 19:13 53.50644 9.73866 3055 ft 200 kts 45°
2026-05-07 19:14 53.51552 9.75600 3030 ft 194 kts 55°
2026-05-07 19:14 53.52366 9.77268 2968 ft 176 kts 53°
2026-05-07 19:14 53.53111 9.78781 2824 ft 168 kts 52°
2026-05-07 19:14 53.53850 9.80273 2615 ft 166 kts 52°
2026-05-07 19:15 53.54587 9.81761 2422 ft 167 kts 52°
2026-05-07 19:15 53.55324 9.83247 2189 ft 166 kts 52°
2026-05-07 19:15 53.56056 9.84724 1954 ft 164 kts 52°
2026-05-07 19:15 53.56743 9.86109 1709 ft 144 kts 52°
2026-05-07 19:16 53.57332 9.87299 1504 ft 131 kts 52°
2026-05-07 19:16 53.57921 9.88488 1346 ft 133 kts 52°
2026-05-07 19:16 53.58514 9.89687 1171 ft 133 kts 52°
2026-05-07 19:16 53.59091 9.90851 982 ft 130 kts 52°
2026-05-07 19:17 53.59663 9.92008 807 ft 128 kts 51°
2026-05-07 19:17 53.60235 9.93166 636 ft 128 kts 50°
2026-05-07 19:17 53.60809 9.94329 425 ft 130 kts 49°
2026-05-07 19:17 53.61387 9.95504 313 ft 130 kts 50°
2026-05-07 19:18 53.61977 9.96680 114 ft 131 kts 50°
2026-05-07 19:18 53.62528 9.97805 55 ft 116 kts 51°
2026-05-07 19:18 53.63023 9.98836 138 ft 129 kts 49°
2026-05-07 19:18 53.63676 10.00090 671 ft 158 kts 49°
2026-05-07 19:19 53.64414 10.01484 1686 ft 159 kts 49°
2026-05-07 19:19 53.65169 10.02760 2695 ft 148 kts 47°
2026-05-07 19:19 53.65884 10.03953 3423 ft 145 kts 48°
2026-05-07 19:19 53.66623 10.05194 3790 ft 163 kts 48°
2026-05-07 19:20 53.67538 10.06762 3956 ft 208 kts 48°
2026-05-07 19:20 53.68581 10.08576 3969 ft 219 kts 48°
2026-05-07 19:20 53.69639 10.10419 3980 ft 221 kts 48°
2026-05-07 19:20 53.70719 10.12300 3990 ft 225 kts 48°
2026-05-07 19:21 53.71794 10.14180 3997 ft 225 kts 48°
2026-05-07 19:21 53.72873 10.16074 3998 ft 225 kts 48°
2026-05-07 19:21 53.73955 10.17963 3994 ft 224 kts 48°
2026-05-07 19:21 53.75041 10.19860 3996 ft 224 kts 48°
2026-05-07 19:22 53.76118 10.21749 3995 ft 224 kts 48°
2026-05-07 19:22 53.77086 10.23789 3987 ft 222 kts 66°
2026-05-07 19:22 53.77377 10.26258 3983 ft 220 kts 95°
2026-05-07 19:22 53.76881 10.28660 3984 ft 221 kts 124°
2026-05-07 19:23 53.75716 10.30323 3988 ft 225 kts 154°
2026-05-07 19:23 53.74180 10.30789 3989 ft 229 kts 183°
2026-05-07 19:23 53.72670 10.29910 3996 ft 234 kts 209°
2026-05-07 19:23 53.71331 10.28353 3995 ft 234 kts 213°
2026-05-07 19:24 53.70015 10.26718 3991 ft 234 kts 214°
2026-05-07 19:24 53.68703 10.25074 3992 ft 234 kts 214°
2026-05-07 19:24 53.67393 10.23427 3994 ft 234 kts 214°
2026-05-07 19:24 53.66098 10.21809 3993 ft 234 kts 214°
2026-05-07 19:25 53.64788 10.20175 3992 ft 234 kts 214°
2026-05-07 19:25 53.63479 10.18549 3992 ft 234 kts 214°
2026-05-07 19:25 53.62167 10.16920 3992 ft 234 kts 214°
2026-05-07 19:25 53.60857 10.15288 3995 ft 234 kts 214°
2026-05-07 19:26 53.59548 10.13657 3991 ft 235 kts 214°
2026-05-07 19:26 53.58232 10.12021 3992 ft 235 kts 214°
2026-05-07 19:26 53.56921 10.10386 3997 ft 234 kts 215°
2026-05-07 19:26 53.55655 10.08619 3994 ft 237 kts 219°
2026-05-07 19:27 53.54410 10.06801 3993 ft 237 kts 219°
2026-05-07 19:27 53.53602 10.05562 4124 ft 237 kts 227°
2026-05-07 19:27 53.52598 10.03347 4770 ft 241 kts 233°
2026-05-07 19:27 53.51325 10.00268 4994 ft 242 kts 234°
2026-05-07 19:28 53.50368 9.97940 5011 ft 242 kts 234°
2026-05-07 19:28 53.49414 9.95619 5007 ft 242 kts 234°
2026-05-07 19:28 53.48770 9.94052 5006 ft 242 kts 234°
2026-05-07 19:28 53.47826 9.91758 4998 ft 242 kts 234°
2026-05-07 19:29 53.46871 9.89439 5000 ft 241 kts 234°
2026-05-07 19:29 53.45916 9.87119 4991 ft 241 kts 234°
2026-05-07 19:29 53.44961 9.84802 4994 ft 241 kts 234°
2026-05-07 19:29 53.44020 9.82518 4726 ft 237 kts 234°
2026-05-07 19:30 53.43091 9.80256 4262 ft 238 kts 234°
2026-05-07 19:30 53.42116 9.77891 3812 ft 246 kts 233°
2026-05-07 19:30 53.41174 9.75537 3553 ft 241 kts 241°
2026-05-07 19:30 53.40756 9.72858 3228 ft 239 kts 270°
2026-05-07 19:31 53.41152 9.70190 2979 ft 237 kts 301°
2026-05-07 19:31 53.42248 9.68228 2938 ft 233 kts 330°
2026-05-07 19:31 53.43746 9.67402 2966 ft 228 kts
2026-05-07 19:31 53.45257 9.67828 2977 ft 210 kts 21°
2026-05-07 19:32 53.46562 9.68634 3017 ft 194 kts 24°
2026-05-07 19:32 53.47801 9.69431 3016 ft 182 kts 24°
2026-05-07 19:32 53.48944 9.70158 2987 ft 173 kts 24°
2026-05-07 19:32 53.50069 9.70873 2985 ft 173 kts 24°
2026-05-07 19:33 53.51110 9.71807 2979 ft 169 kts 47°
2026-05-07 19:33 53.51648 9.73515 2996 ft 167 kts 73°
2026-05-07 19:33 53.51996 9.75374 3000 ft 166 kts 74°
2026-05-07 19:33 53.52340 9.77227 2997 ft 166 kts 73°
2026-05-07 19:34 53.52923 9.78897 2860 ft 168 kts 51°
2026-05-07 19:34 53.53716 9.80282 2652 ft 164 kts 48°
2026-05-07 19:34 53.54478 9.81642 2450 ft 157 kts 50°
2026-05-07 19:34 53.55177 9.82974 2233 ft 142 kts 52°
2026-05-07 19:35 53.55792 9.84198 2034 ft 135 kts 53°
2026-05-07 19:35 53.56395 9.85410 1835 ft 135 kts 53°
2026-05-07 19:35 53.56996 9.86621 1640 ft 135 kts 52°
2026-05-07 19:35 53.57596 9.87833 1452 ft 135 kts 52°
2026-05-07 19:36 53.58196 9.89044 1257 ft 135 kts 52°
2026-05-07 19:36 53.58792 9.90247 1077 ft 132 kts 52°
2026-05-07 19:36 53.59369 9.91434 890 ft 130 kts 52°
2026-05-07 19:36 53.59949 9.92619 733 ft 131 kts 50°
2026-05-07 19:37 53.60538 9.93805 553 ft 131 kts 50°
2026-05-07 19:37 53.61120 9.94966 362 ft 129 kts 49°
2026-05-07 19:37 53.61705 9.96135 172 ft 130 kts 50°
2026-05-07 19:37 53.62281 9.97290 45 ft 121 kts 50°
2026-05-07 19:38 53.62634 9.98005 47 ft 39 kts 51°
2026-05-07 19:38 53.62765 9.98279 48 ft 24 kts 71°
2026-05-07 19:38 53.62718 9.98391 50 ft 10 kts 140°
2026-05-07 19:38 53.62680 9.98464 52 ft 7 kts 109°
2026-05-07 19:39 53.62682 9.98523 49 ft 4 kts 63°
2026-05-07 19:39 53.62692 9.98549 51 ft 1 kts 57°
2026-05-07 19:39 53.62692 9.98551 51 ft 0 kts 57°
2026-05-07 19:39 53.62700 9.98569 51 ft 4 kts 53°
2026-05-07 19:40 53.62726 9.98625 52 ft 8 kts 51°
2026-05-07 19:40 53.62773 9.98722 52 ft 13 kts 50°
2026-05-07 19:40 53.62835 9.98846 52 ft 15 kts 50°
2026-05-07 19:40 53.62908 9.98993 52 ft 17 kts 50°
2026-05-07 19:41 53.62963 9.99105 52 ft 12 kts 50°
2026-05-07 19:41 53.63019 9.99219 52 ft 12 kts 50°
2026-05-07 19:41 53.63071 9.99334 52 ft 9 kts 55°
2026-05-07 19:41 53.63081 9.99358 52 ft 0 kts 55°
2026-05-07 19:42 53.63090 9.99380 52 ft 4 kts 55°
2026-05-07 19:42 53.63114 9.99437 52 ft 8 kts 55°
2026-05-07 19:43 53.63151 9.99526 52 ft 11 kts 51°
2026-05-07 19:43 53.63204 9.99636 53 ft 14 kts 50°
2026-05-07 19:43 53.63223 9.99687 54 ft 0 kts 66°
2026-05-07 19:44 53.63223 9.99688 54 ft 0 kts 66°
2026-05-07 19:44 53.63232 9.99714 51 ft 5 kts 51°
2026-05-07 19:44 53.63266 9.99763 54 ft 8 kts 32°
2026-05-07 19:44 53.63313 9.99831 54 ft 10 kts 49°
2026-05-07 19:45 53.63365 9.99934 54 ft 13 kts 50°
2026-05-07 19:45 53.63426 10.00056 54 ft 13 kts 50°
2026-05-07 19:45 53.63423 10.00181 54 ft 14 kts 138°
2026-05-07 19:45 53.63324 10.00235 54 ft 16 kts 177°
2026-05-07 19:46 53.63209 10.00249 54 ft 12 kts 175°
2026-05-07 19:46 53.63164 10.00268 52 ft 5 kts 123°
2026-05-07 19:46 53.63166 10.00337 54 ft 6 kts 84°
2026-05-07 19:46 53.63167 10.00355 54 ft 0 kts 86°